Tracking 19969 objects as of 12-Nov-2019
Live streaming from Space Station
objects crossing your sky now
Track the group of recently launched Starlink satellites

SEEKER

Track SEEKER now!
10-day predictions


NORAD ID: 44533
Int'l Code: 2019-022K
Perigee: 474.6 km
Apogee: 489.7 km
Inclination: 51.6 °
Period: 94.1 minutes
Semi major axis: 6853 km
RCS: Unknown
Launch date: September 16, 2019
Source: United States (US)
Launch site: ()
aabbcc
Your satellite tracking list
Your tracking list is empty




NASA's NSSDC Master Catalog

Two Line Element Set (TLE):
1 44533U 19022K   19316.18056643  .00001207  00000-0  52883-4 0  9996
2 44533  51.6451   1.8735 0010960 233.9372 126.0538 15.30265353  8716
Source of the keplerian elements: AFSPC